SCP
0 0 0 0 0 0 0 0 0 0 0 0 0 0 0 0 0 0 0 0 0 0 0 0 0 1 1 1 1 1 0 0 0 1 0 0 0 0 0 0 0 0 0
0 0 0 0 0 0 0 0 0 0 0 0 0 0 0 0 0 0 0 0 0 1 1 1 1 1 1 1 1 1 1 0 0 0 0 0 0 0 0 0 0 0 0
0 0 0 0 0 0 0 0 0 0 0 0 0 0 0 0 0 0 0 0 0 0 0 1 1 1 0 0 0 1 1 0 0 0 0 0 0 0 0 0 0 0 0
0 0 0 0 0 0 0 0 0 0 0 0 0 0 0 0 0 0 0 0 0 0 0 0 1 1 1 1 1 1 1 1 0 0 0 0 0 0 0 0 0 0 0
0 0 0 0 0 0 0 0 0 0 0 0 0 0 0 0 0 0 0 0 0 0 0 0 1 0 0 1 1 1 1 1 0 0 0 0 0 0 0 0 0 0 0
0 0 0 0 0 0 0 0 0 0 0 0 0 0 0 0 0 0 0 0 0 0 0 0 0 0 0 0 1 1 0 1 0 1 0 1 0 1 0 1 0 0 0
0 0 0 0 0 0 0 0 0 0 0 0 0 0 0 0 0 0 0 0 0 0 0 0 0 0 0 0 0 0 1 1 1 2 1 0 1 0 1 1 1 0 0
0 0 0 0 0 0 0 0 0 0 0 0 0 0 0 0 0 0 0 0 0 0 0 0 0 0 0 0 0 1 1 2 2 2 2 1 0 1 1 1 1 1 1
0 0 0 0 0 0 0 0 0 0 0 0 0 0 0 0 0 0 0 0 0 0 0 0 0 0 0 0 0 0 1 0 0 0 0 1 1 0 0 1 1 1 1
0 0 0 0 0 0 0 0 0 0 0 0 0 0 0 0 0 0 0 0 0 0 0 0 0 0 0 0 0 0 0 1 0 0 0 0 1 1 0 1 1 1 0
0 0 0 0 0 0 0 0 0 0 0 0 0 0 0 0 0 0 0 0 0 0 0 0 0 0 0 0 0 0 0 0 0 0 0 0 1 1 1 0 0 0 0
0 0 0 0 0 0 0 0 0 0 0 0 0 0 0 0 0 0 0 0 0 0 0 0 0 0 0 0 0 0 0 0 0 0 0 0 0 0 0 0 0 0 0
0 0 0 0 0 0 0 0 0 0 0 0 0 0 0 0 0 0 0 0 0 0 0 0 0 0 0 0 0 0 0 0 0 0 0 0 0 0 0 0 0 0 0
0 0 0 0 0 0 0 0 0 0 0 0 0 0 0 0 0 0 0 0 0 0 0 0 0 0 0 0 0 0 0 0 0 0 0 0 0 0 0 0 0 -0 0
0 0 0 0 0 0 0 0 0 0 0 0 0 0 0 0 0 0 0 0 0 0 0 0 0 0 0 0 0 0 0 0 0 0 0 0 0 0 0 -0 0 0 0
0 0 0 0 0 0 0 0 0 0 0 0 0 0 0 0 0 0 0 0 0 0 0 0 0 0 0 0 0 0 0 0 0 0 0 0 0 0 0 -0 -0 0 0
0 0 0 0 0 0 0 0 0 0 0 0 0 0 0 0 0 0 0 0 0 0 0 0 0 0 0 0 0 0 0 0 0 0 0 -0 0 -0 -0 -0 -0 0 0
0 0 0 0 0 0 0 0 0 0 0 0 0 0 0 0 0 0 0 0 0 0 0 0 0 0 0 0 0 0 0 0 0 0 0 0 0 0 0 0 0 0 0
0 0 0 0 0 0 0 0 0 0 0 -0 0 0 0 0 0 0 0 -0 0 0 0 0 0 0 0 0 0 0 0 0 0 0 0 -0 0 0 0 0 0 0 0
0 0 0 0 0 0 0 0 0 0 -0 0 0 0 0 0 0 0 0 -0 0 0 0 0 0 0 0 0 0 0 0 0 0 0 0 -0 -0 0 0 0 0 0 0
0 0 0 0 0 0 0 0 0 0 0 0 0 0 0 0 0 0 0 0 0 0 0 0 0 0 0 0 0 0 0 0 0 0 0 0 0 0 0 0 0 0 0
0 0 0 0 0 0 0 0 0 0 0 0 0 0 0 0 0 0 0 0 0 0 0 0 0 0 0 0 -0 -0 0 0 0 0 0 0 0 0 0 0 -0 -0 0
0 0 0 0 0 -0 0 0 -0 0 0 0 0 0 0 0 0 0 0 0 0 -0 0 0 -0 0 -0 -0 -0 -0 0 0 0 0 0 0 0 0 0 -0 -0 -0 -0
0 0 0 0 0 0 0 0 -0 0 0 0 0 0 0 0 0 0 0 0 -0 -0 0 0 -0 -0 -0 -0 -0 -0 -0 0 0 0 0 0 0 0 0 0 -0 -0 -0
0 0 0 0 0 -0 -0 -0 0 0 0 0 0 0 0 0 0 0 0 0 0 0 0 0 0 0 0 -0 -0 -0 0 0 0 -0 0 0 -0 0 -0 0 0 -0 -0
0 0 0 0 -0 0 -0 -0 0 0 0 0 0 0 -0 0 0 -0 0 0 -0 -0 0 0 0 0 0 0 -0 0 0 0 0 0 -0 -0 -0 -0 0 0 0 0 0
Wind_Speed_500mb
38 39 34 36 40 43 42 41 45 46 48 42 41 34 31 31 29 28 28 25 25 30 32 34 33 40 43 45 40 34 36 39 50 54 48 45 43 37 32 32 31 29 30
37 25 29 36 38 38 39 43 45 45 41 43 45 42 37 30 37 36 36 36 28 25 24 24 29 40 49 47 46 34 37 39 48 51 51 50 49 43 36 34 32 28 29
42 36 32 37 42 41 42 43 50 49 50 52 48 49 42 37 34 37 34 35 43 36 31 26 20 40 52 50 45 36 32 33 45 53 53 52 51 49 42 38 33 29 31
51 51 48 43 42 41 41 43 49 50 54 50 54 46 48 42 48 50 51 41 42 46 38 31 42 41 31 45 43 42 39 40 48 54 55 50 53 51 48 43 38 34 33
57 50 44 38 38 43 45 45 41 43 46 51 47 53 49 55 59 62 54 49 37 34 45 32 28 31 40 26 23 33 38 38 47 52 53 51 52 53 52 48 43 38 37
58 55 54 57 56 56 55 57 57 56 57 58 59 57 55 54 51 44 40 38 34 32 29 34 28 22 20 28 30 26 34 38 35 40 53 53 55 56 57 51 47 41 38
52 55 55 56 55 52 45 50 57 55 51 41 33 40 50 55 46 34 27 33 26 29 27 27 23 20 23 18 24 35 37 35 38 33 40 54 58 58 59 54 48 42 40
52 54 58 56 51 48 39 33 30 27 27 29 39 45 41 54 16 12 11 9 14 12 17 14 18 18 21 29 26 28 35 42 49 48 46 46 57 60 62 58 51 47 42
55 61 55 51 49 39 32 33 33 34 37 38 43 41 18 17 35 31 13 17 19 15 10 15 18 19 18 19 25 29 31 32 40 46 53 54 55 60 63 64 60 51 48
59 57 52 50 48 35 35 31 32 30 26 27 29 19 18 24 19 16 15 18 13 12 9 13 17 17 17 16 15 20 20 23 35 43 45 45 57 53 65 93 92 64 46
50 45 47 54 47 38 32 29 32 32 29 27 24 25 24 24 24 27 33 16 11 15 17 18 17 18 17 11 11 14 12 4 6 8 7 14 30 59 53 76 70 49 38
45 53 58 55 51 45 32 27 29 27 29 33 35 34 31 29 25 23 26 20 16 12 10 12 10 9 9 9 4 5 9 8 10 9 5 12 23 48 65 42 36 35 41
56 61 65 64 47 38 36 33 40 43 41 42 43 44 42 39 31 28 32 30 21 13 15 8 8 6 2 5 8 11 7 17 23 17 11 14 17 14 40 28 25 25 27
59 58 62 45 42 39 38 39 41 46 47 47 47 41 37 39 40 31 31 34 24 22 13 14 8 6 4 6 6 10 9 8 7 10 16 28 21 23 16 21 20 20 16
48 42 38 36 35 36 42 47 54 51 43 35 35 31 32 35 32 32 31 34 30 22 17 16 14 15 12 15 17 21 24 23 18 30 27 27 33 29 24 21 21 18 14
41 40 40 42 48 45 45 42 39 28 26 27 25 26 25 24 23 26 30 31 36 35 20 29 28 27 21 30 27 15 13 22 27 30 32 31 31 29 27 24 20 19 16
45 40 40 44 43 42 34 35 23 21 20 19 21 15 13 14 22 27 31 34 38 43 35 36 29 33 38 40 30 26 29 35 37 36 37 37 35 30 25 21 17 13 10
43 40 34 34 35 32 30 26 20 18 19 17 9 11 11 18 19 20 28 32 38 40 49 42 43 45 44 41 43 47 48 47 50 47 44 42 36 31 26 21 18 12 9
36 33 31 32 32 29 24 17 20 16 12 8 7 8 13 14 18 27 30 34 45 45 42 45 52 44 46 53 60 59 57 54 46 41 41 37 32 27 22 18 16 13 11
32 30 30 29 25 20 16 11 14 3 3 6 8 10 10 16 15 16 18 50 53 44 43 50 55 54 55 50 60 62 62 55 51 42 40 37 31 30 27 23 21 18 18
31 28 27 24 18 18 14 8 3 4 4 6 7 7 7 16 20 25 30 54 46 49 57 62 58 55 56 57 53 55 60 57 51 44 43 41 38 37 37 33 28 25 23
30 24 21 17 14 12 10 5 8 8 9 8 8 12 15 19 38 28 19 44 46 56 60 58 53 48 55 58 58 57 56 56 54 44 46 46 35 41 40 38 34 28 22
24 22 17 13 10 10 7 8 12 9 7 7 10 13 20 33 26 27 30 42 36 36 39 44 50 50 61 58 52 50 47 45 48 44 41 45 33 36 37 35 32 28 24
22 21 13 5 8 8 8 13 15 14 12 15 17 14 15 20 21 22 29 33 35 34 42 49 47 52 43 54 51 49 39 44 43 38 35 41 30 30 29 32 31 31 28
18 11 9 11 9 13 19 20 21 15 16 15 17 15 16 17 18 20 22 30 38 39 37 37 41 42 42 49 46 38 43 50 48 39 31 32 28 26 26 25 28 34 34
8 4 11 14 14 12 14 17 17 18 18 17 18 18 19 20 22 22 16 21 32 38 35 35 34 36 30 30 31 21 28 36 44 37 27 28 31 30 24 23 28 30 30
Wind_Direction_500mb
301 306 309 308 307 308 305 299 301 302 303 306 294 308 306 312 305 312 309 310 322 307 289 277 252 247 243 247 251 247 246 246 247 247 244 241 238 239 239 234 230 227 225
297 298 295 290 288 283 277 283 290 293 288 295 287 292 290 299 311 309 305 302 298 297 308 288 253 241 236 237 246 246 245 246 250 249 247 244 239 237 238 235 229 226 226
297 301 287 283 278 271 270 272 281 283 287 289 284 296 282 276 292 307 302 294 291 286 276 274 275 263 254 247 244 241 234 251 253 250 247 244 241 237 235 234 227 227 225
302 305 302 291 281 276 275 274 279 278 285 284 285 283 274 278 286 286 296 292 284 281 283 268 269 278 277 253 255 253 246 236 245 245 245 241 238 238 233 232 229 225 224
313 311 306 298 288 281 279 278 279 278 279 276 279 279 280 286 286 284 282 276 275 271 271 274 276 288 280 273 263 257 253 254 251 247 243 242 239 236 234 231 230 226 225
311 309 306 299 294 289 282 281 281 281 287 292 294 293 293 289 288 292 264 272 273 277 267 269 268 276 293 286 254 252 257 249 255 256 251 243 241 236 233 229 228 228 226
317 315 315 314 312 305 296 283 280 285 288 289 290 294 297 293 291 278 266 257 273 271 265 264 277 279 280 276 266 264 250 257 238 255 256 251 246 238 234 229 223 223 221
319 316 315 311 306 300 294 300 294 289 287 287 297 306 310 312 294 220 222 219 232 225 249 278 282 301 287 270 261 252 256 248 252 264 249 246 247 241 235 230 217 213 214
317 317 316 313 308 302 288 281 280 283 282 287 292 291 292 284 291 292 251 247 242 280 298 289 298 296 312 289 262 262 267 258 264 259 250 244 236 239 240 232 212 199 195
315 315 314 318 320 306 279 284 287 293 294 293 290 290 280 281 291 287 241 270 298 191 224 274 295 300 299 303 296 288 290 278 269 260 260 262 247 243 239 240 201 191 199
314 320 321 322 318 311 298 285 287 289 288 293 290 289 278 278 279 264 284 268 210 273 282 283 293 299 301 315 333 325 323 199 64 228 199 277 288 245 228 160 157 184 174
318 323 321 318 311 302 297 285 284 284 286 288 289 284 276 272 260 264 268 277 282 249 237 282 299 282 292 307 306 295 229 178 142 126 122 297 69 107 129 123 144 177 180
321 318 316 314 306 301 294 285 285 285 285 285 282 278 271 262 254 259 262 267 258 237 251 247 280 316 294 295 316 322 299 228 236 246 262 260 140 95 111 154 152 174 189
316 316 317 311 305 297 293 294 291 289 289 285 281 271 263 261 252 246 258 260 246 233 215 231 242 169 167 134 122 105 98 349 240 210 181 186 176 175 148 162 158 177 183
323 326 326 322 314 303 293 292 296 292 288 291 283 272 257 250 249 234 252 246 221 209 190 198 175 179 185 172 162 140 129 127 133 140 143 150 159 160 156 152 154 158 175
326 318 310 310 310 304 301 303 304 291 289 289 287 280 258 250 242 244 242 232 221 207 195 187 179 183 190 171 164 171 172 158 142 138 134 131 132 132 128 129 147 172 176
321 317 311 314 317 314 312 309 301 301 293 293 285 277 252 259 256 251 235 235 220 205 210 171 171 187 173 170 175 162 140 129 123 122 124 124 119 115 122 133 136 144 164
324 322 321 324 329 322 314 309 303 310 298 276 293 269 274 272 274 247 242 222 205 198 196 161 166 164 159 159 155 141 132 123 119 116 113 112 115 120 121 123 127 133 152
328 331 329 329 334 331 335 320 317 308 287 281 323 310 300 277 257 266 221 204 191 179 182 169 164 181 169 155 147 134 128 123 115 112 109 108 107 105 103 106 107 119 127
328 335 333 338 337 329 344 348 338 332 300 320 333 340 289 290 155 146 193 190 186 167 164 155 149 145 144 143 136 130 123 118 116 116 109 105 102 95 91 90 87 92 93
326 332 336 346 343 336 337 329 359 79 57 5 6 5 327 29 154 138 118 169 148 165 165 147 140 143 141 137 132 123 118 116 111 109 102 95 92 87 84 83 81 82 87
333 334 340 355 357 16 41 82 117 94 79 73 56 50 75 97 128 152 111 145 154 152 148 148 139 144 148 142 136 134 128 125 114 114 108 95 91 92 87 81 75 73 77
333 337 339 357 8 36 43 83 124 93 78 91 88 101 91 94 108 100 119 155 160 164 150 148 154 146 151 145 136 141 137 132 125 124 116 107 99 90 79 76 72 65 75
336 333 342 39 63 48 61 109 114 82 82 84 96 110 126 109 110 103 124 143 162 168 161 156 141 148 157 150 140 140 140 137 131 128 119 110 104 93 80 68 62 60 70
335 336 78 95 82 79 99 109 107 100 97 103 87 100 134 140 120 122 132 152 163 166 163 166 156 140 151 145 141 141 153 150 144 143 139 116 117 100 83 70 65 67 71
358 112 104 103 85 77 102 115 119 110 101 109 103 97 118 133 130 131 144 150 163 174 175 163 156 159 140 147 155 150 155 159 149 141 142 126 121 107 90 84 87 81 81
Wind_Speed_850mb
38 39 34 36 40 43 42 41 45 46 48 42 41 34 31 31 29 28 28 25 25 30 32 34 33 40 43 45 40 34 36 39 50 54 48 45 43 37 32 32 31 29 30
37 25 29 36 38 38 39 43 45 45 41 43 45 42 37 30 37 36 36 36 28 25 24 24 29 40 49 47 46 34 37 39 48 51 51 50 49 43 36 34 32 28 29
42 36 32 37 42 41 42 43 50 49 50 52 48 49 42 37 34 37 34 35 43 36 31 26 20 40 52 50 45 36 32 33 45 53 53 52 51 49 42 38 33 29 31
51 51 48 43 42 41 41 43 49 50 54 50 54 46 48 42 48 50 51 41 42 46 38 31 42 41 31 45 43 42 39 40 48 54 55 50 53 51 48 43 38 34 33
57 50 44 38 38 43 45 45 41 43 46 51 47 53 49 55 59 62 54 49 37 34 45 32 28 31 40 26 23 33 38 38 47 52 53 51 52 53 52 48 43 38 37
58 55 54 57 56 56 55 57 57 56 57 58 59 57 55 54 51 44 40 38 34 32 29 34 28 22 20 28 30 26 34 38 35 40 53 53 55 56 57 51 47 41 38
52 55 55 56 55 52 45 50 57 55 51 41 33 40 50 55 46 34 27 33 26 29 27 27 23 20 23 18 24 35 37 35 38 33 40 54 58 58 59 54 48 42 40
52 54 58 56 51 48 39 33 30 27 27 29 39 45 41 54 16 12 11 9 14 12 17 14 18 18 21 29 26 28 35 42 49 48 46 46 57 60 62 58 51 47 42
55 61 55 51 49 39 32 33 33 34 37 38 43 41 18 17 35 31 13 17 19 15 10 15 18 19 18 19 25 29 31 32 40 46 53 54 55 60 63 64 60 51 48
59 57 52 50 48 35 35 31 32 30 26 27 29 19 18 24 19 16 15 18 13 12 9 13 17 17 17 16 15 20 20 23 35 43 45 45 57 53 65 93 92 64 46
50 45 47 54 47 38 32 29 32 32 29 27 24 25 24 24 24 27 33 16 11 15 17 18 17 18 17 11 11 14 12 4 6 8 7 14 30 59 53 76 70 49 38
45 53 58 55 51 45 32 27 29 27 29 33 35 34 31 29 25 23 26 20 16 12 10 12 10 9 9 9 4 5 9 8 10 9 5 12 23 48 65 42 36 35 41
56 61 65 64 47 38 36 33 40 43 41 42 43 44 42 39 31 28 32 30 21 13 15 8 8 6 2 5 8 11 7 17 23 17 11 14 17 14 40 28 25 25 27
59 58 62 45 42 39 38 39 41 46 47 47 47 41 37 39 40 31 31 34 24 22 13 14 8 6 4 6 6 10 9 8 7 10 16 28 21 23 16 21 20 20 16
48 42 38 36 35 36 42 47 54 51 43 35 35 31 32 35 32 32 31 34 30 22 17 16 14 15 12 15 17 21 24 23 18 30 27 27 33 29 24 21 21 18 14
41 40 40 42 48 45 45 42 39 28 26 27 25 26 25 24 23 26 30 31 36 35 20 29 28 27 21 30 27 15 13 22 27 30 32 31 31 29 27 24 20 19 16
45 40 40 44 43 42 34 35 23 21 20 19 21 15 13 14 22 27 31 34 38 43 35 36 29 33 38 40 30 26 29 35 37 36 37 37 35 30 25 21 17 13 10
43 40 34 34 35 32 30 26 20 18 19 17 9 11 11 18 19 20 28 32 38 40 49 42 43 45 44 41 43 47 48 47 50 47 44 42 36 31 26 21 18 12 9
36 33 31 32 32 29 24 17 20 16 12 8 7 8 13 14 18 27 30 34 45 45 42 45 52 44 46 53 60 59 57 54 46 41 41 37 32 27 22 18 16 13 11
32 30 30 29 25 20 16 11 14 3 3 6 8 10 10 16 15 16 18 50 53 44 43 50 55 54 55 50 60 62 62 55 51 42 40 37 31 30 27 23 21 18 18
31 28 27 24 18 18 14 8 3 4 4 6 7 7 7 16 20 25 30 54 46 49 57 62 58 55 56 57 53 55 60 57 51 44 43 41 38 37 37 33 28 25 23
30 24 21 17 14 12 10 5 8 8 9 8 8 12 15 19 38 28 19 44 46 56 60 58 53 48 55 58 58 57 56 56 54 44 46 46 35 41 40 38 34 28 22
24 22 17 13 10 10 7 8 12 9 7 7 10 13 20 33 26 27 30 42 36 36 39 44 50 50 61 58 52 50 47 45 48 44 41 45 33 36 37 35 32 28 24
22 21 13 5 8 8 8 13 15 14 12 15 17 14 15 20 21 22 29 33 35 34 42 49 47 52 43 54 51 49 39 44 43 38 35 41 30 30 29 32 31 31 28
18 11 9 11 9 13 19 20 21 15 16 15 17 15 16 17 18 20 22 30 38 39 37 37 41 42 42 49 46 38 43 50 48 39 31 32 28 26 26 25 28 34 34
8 4 11 14 14 12 14 17 17 18 18 17 18 18 19 20 22 22 16 21 32 38 35 35 34 36 30 30 31 21 28 36 44 37 27 28 31 30 24 23 28 30 30
Wind_Direction_850mb
301 306 309 308 307 308 305 299 301 302 303 306 294 308 306 312 305 312 309 310 322 307 289 277 252 247 243 247 251 247 246 246 247 247 244 241 238 239 239 234 230 227 225
297 298 295 290 288 283 277 283 290 293 288 295 287 292 290 299 311 309 305 302 298 297 308 288 253 241 236 237 246 246 245 246 250 249 247 244 239 237 238 235 229 226 226
297 301 287 283 278 271 270 272 281 283 287 289 284 296 282 276 292 307 302 294 291 286 276 274 275 263 254 247 244 241 234 251 253 250 247 244 241 237 235 234 227 227 225
302 305 302 291 281 276 275 274 279 278 285 284 285 283 274 278 286 286 296 292 284 281 283 268 269 278 277 253 255 253 246 236 245 245 245 241 238 238 233 232 229 225 224
313 311 306 298 288 281 279 278 279 278 279 276 279 279 280 286 286 284 282 276 275 271 271 274 276 288 280 273 263 257 253 254 251 247 243 242 239 236 234 231 230 226 225
311 309 306 299 294 289 282 281 281 281 287 292 294 293 293 289 288 292 264 272 273 277 267 269 268 276 293 286 254 252 257 249 255 256 251 243 241 236 233 229 228 228 226
317 315 315 314 312 305 296 283 280 285 288 289 290 294 297 293 291 278 266 257 273 271 265 264 277 279 280 276 266 264 250 257 238 255 256 251 246 238 234 229 223 223 221
319 316 315 311 306 300 294 300 294 289 287 287 297 306 310 312 294 220 222 219 232 225 249 278 282 301 287 270 261 252 256 248 252 264 249 246 247 241 235 230 217 213 214
317 317 316 313 308 302 288 281 280 283 282 287 292 291 292 284 291 292 251 247 242 280 298 289 298 296 312 289 262 262 267 258 264 259 250 244 236 239 240 232 212 199 195
315 315 314 318 320 306 279 284 287 293 294 293 290 290 280 281 291 287 241 270 298 191 224 274 295 300 299 303 296 288 290 278 269 260 260 262 247 243 239 240 201 191 199
314 320 321 322 318 311 298 285 287 289 288 293 290 289 278 278 279 264 284 268 210 273 282 283 293 299 301 315 333 325 323 199 64 228 199 277 288 245 228 160 157 184 174
318 323 321 318 311 302 297 285 284 284 286 288 289 284 276 272 260 264 268 277 282 249 237 282 299 282 292 307 306 295 229 178 142 126 122 297 69 107 129 123 144 177 180
321 318 316 314 306 301 294 285 285 285 285 285 282 278 271 262 254 259 262 267 258 237 251 247 280 316 294 295 316 322 299 228 236 246 262 260 140 95 111 154 152 174 189
316 316 317 311 305 297 293 294 291 289 289 285 281 271 263 261 252 246 258 260 246 233 215 231 242 169 167 134 122 105 98 349 240 210 181 186 176 175 148 162 158 177 183
323 326 326 322 314 303 293 292 296 292 288 291 283 272 257 250 249 234 252 246 221 209 190 198 175 179 185 172 162 140 129 127 133 140 143 150 159 160 156 152 154 158 175
326 318 310 310 310 304 301 303 304 291 289 289 287 280 258 250 242 244 242 232 221 207 195 187 179 183 190 171 164 171 172 158 142 138 134 131 132 132 128 129 147 172 176
321 317 311 314 317 314 312 309 301 301 293 293 285 277 252 259 256 251 235 235 220 205 210 171 171 187 173 170 175 162 140 129 123 122 124 124 119 115 122 133 136 144 164
324 322 321 324 329 322 314 309 303 310 298 276 293 269 274 272 274 247 242 222 205 198 196 161 166 164 159 159 155 141 132 123 119 116 113 112 115 120 121 123 127 133 152
328 331 329 329 334 331 335 320 317 308 287 281 323 310 300 277 257 266 221 204 191 179 182 169 164 181 169 155 147 134 128 123 115 112 109 108 107 105 103 106 107 119 127
328 335 333 338 337 329 344 348 338 332 300 320 333 340 289 290 155 146 193 190 186 167 164 155 149 145 144 143 136 130 123 118 116 116 109 105 102 95 91 90 87 92 93
326 332 336 346 343 336 337 329 359 79 57 5 6 5 327 29 154 138 118 169 148 165 165 147 140 143 141 137 132 123 118 116 111 109 102 95 92 87 84 83 81 82 87
333 334 340 355 357 16 41 82 117 94 79 73 56 50 75 97 128 152 111 145 154 152 148 148 139 144 148 142 136 134 128 125 114 114 108 95 91 92 87 81 75 73 77
333 337 339 357 8 36 43 83 124 93 78 91 88 101 91 94 108 100 119 155 160 164 150 148 154 146 151 145 136 141 137 132 125 124 116 107 99 90 79 76 72 65 75
336 333 342 39 63 48 61 109 114 82 82 84 96 110 126 109 110 103 124 143 162 168 161 156 141 148 157 150 140 140 140 137 131 128 119 110 104 93 80 68 62 60 70
335 336 78 95 82 79 99 109 107 100 97 103 87 100 134 140 120 122 132 152 163 166 163 166 156 140 151 145 141 141 153 150 144 143 139 116 117 100 83 70 65 67 71
358 112 104 103 85 77 102 115 119 110 101 109 103 97 118 133 130 131 144 150 163 174 175 163 156 159 140 147 155 150 155 159 149 141 142 126 121 107 90 84 87 81 81